Location: Knowlton
(51.2333°N, 1.2667°E)
Time: 04:27:47
(UTC+00:00)

Meteor 2-21 - Pass Details

Date: 18 April 2021
Orbit: 933 x 967 km, 82.5° (Epoch: 06 May)

Event Time Altitude Azimuth Distance (km) Brightness Sun altitude
Rises 20:52:24 0° 348° (NNW) 3,603 8.4 -16.3°
Reaches altitude 10° 20:54:53 10° 348° (NNW) 2,655 7.6 -16.6°
Maximum altitude 21:00:57 81° 263° (W) 953 4.5 -17.2°
Enters shadow 21:05:28 19° 177° (S) 2,078 5.8 -17.7°
